Location: Newark
(50.4348°N, 30.5552°E)
Time: 01:32:17
(UTC+00:00)

Transit 2A Rocket - Pass Details

Date: 27 January 2020
Orbit: 591 x 912 km, 66.7° (Epoch: 25 February)

Event Time Altitude Azimuth Distance (km) Brightness Sun altitude
Exits shadow 04:31:34 14° 268° (W) 1,676 6.2 -11.0°
Maximum altitude 04:34:32 28° 322° (NW) 1,134 5.5 -10.5°
Drops below altitude 10° 04:38:24 10° 23° (NNE) 1,993 7.2 -9.9°
Sets 04:41:00 0° 35° (NE) 2,942 8.3 -9.5°
